Location: Newark
(53.4333°N, 36.0000°E)
Time: 20:57:00
(UTC+00:00)

ISS - Pass Details

Date: 29 September 2019
Orbit: 411 x 421 km, 51.6° (Epoch: 19 October)

Event Time Altitude Azimuth Distance (km) Brightness Sun altitude
Rises 18:34:46 0° 279° (W) 2,348 0.9 -28.1°
Reaches altitude 10° 18:37:00 10° 268° (W) 1,484 -0.4 -28.4°
Enters shadow 18:37:15 12° 266° (W) 1,395 -0.6 -28.4°
